Location: Dürabuch
(48.2640°N, 11.2185°E)
Time: 19:36:03
(UTC+00:00)

Helios 1A Rocket - Pass Details

Date: 23 May 2024
Orbit: 520 x 543 km, 98.3° (Epoch: 24 June)

Event Time Altitude Azimuth Distance (km) Brightness Sun altitude
Exits shadow 00:09:36 49° 148° (SSE) 694 3.0 -19.9°
Maximum altitude 00:10:32 77° 75° (ENE) 555 2.8 -19.9°
Drops below altitude 10° 00:14:24 10° 349° (NNW) 1,794 6.4 -19.7°
Sets 00:16:31 0° 348° (NNW) 2,685 7.4 -19.6°
